Other Public Products
Issued by NWS Grand Forks, ND

Home | Current Version | Previous Version | Graphics & Text | Print | Product List | Glossary On
Versions: 1 2 3 4 5 6 7 8 9 10 11 12 13 14 15 16 17 18 19 20 21 22 23 24 25 26 27 28 29 30 31 32 33 34 35 36 37 38 39 40 41 42 43 44 45 46 47 48 49 50
000
FPUS83 KFGF 250631
OPUFGF
PRAIRIE TO PINES WEATHER ROUNDUP
NATIONAL WEATHER SERVICE EASTERN NORTH DAKOTA/GRAND FORKS ND
100 AM CDT SUN JUN 25 2017

 **SATELLITE DATA USED TO AUGMENT SKY COVER AT AUTOMATED STATIONS**
 *****  WEATHER ACROSS EASTERN NORTH DAKOTA  *****

CITY           SKY/WX    TMP DP  RH WIND       PRES   REMARKS
GRAND FORKS    MOCLDY    50  45  83 NW8       30.18R
6HR MIN TEMP:  50; 6HR MAX TEMP:  53; 6HR PCP:  0.01;

GRAND FORKS AF FAIR      47  42  81 NW8       30.20R
GRAND CITY NWS NOT AVBL
BUXTON           N/A     53  47  81 NW12        N/A
DEVILS LAKE    FAIR      45  43  93 NW8       30.24S
6HR MIN TEMP:  45; 6HR MAX TEMP:  56; 6HR PCP: TRACE;

FARGO          CLOUDY    53  44  71 NW13      30.18S
6HR MIN TEMP:  50; 6HR MAX TEMP:  59; 6HR PCP: TRACE;

WAHPETON ARPT  MOCLDY    46  39  76 NW8       30.19S
$$

 *****  WEATHER ACROSS CENTRAL AND WESTERN NORTH DAKOTA  *****

CITY           SKY/WX    TMP DP  RH WIND       PRES   REMARKS
JAMESTOWN      MOCLDY    50  46  86 NW10      30.23S
6HR MIN TEMP:  50; 6HR MAX TEMP:  56; 6HR PCP:  0.01;

BISMARCK       FAIR      48  41  76 W6        30.30R
6HR MIN TEMP:  48; 6HR MAX TEMP:  65;

MINOT          FAIR      47  40  76 SW9       30.24F
6HR MIN TEMP:  45; 6HR MAX TEMP:  62;

MINOT AFB      FAIR      40  37  88 CALM      30.23F
6HR MIN TEMP:  40; 6HR MAX TEMP:  62;

GARRISON         N/A     40  36  86 CALM      30.26F
6HR MIN TEMP:  40; 6HR MAX TEMP:  61;

WILLISTON      FAIR      52  39  61 CALM      30.27S
6HR MIN TEMP:  47; 6HR MAX TEMP:  70;

DICKINSON      FAIR      40  32  73 S7        30.29F
6HR MIN TEMP:  40; 6HR MAX TEMP:  64;

HETTINGER      FAIR      38  30  73 CALM      30.34S
6HR MIN TEMP:  38; 6HR MAX TEMP:  66;

$$

 *****  OTHER OBSERVATIONS NORTHEAST NORTH DAKOTA  *****

CITY           SKY/WX    TMP DP  RH WIND       PRES   REMARKS
WALHALLA       NOT AVBL
LANGDON        FAIR      41  41 100 W3        30.22S
CAVALIER       NOT AVBL
GRAFTON        FAIR      48  45  87 W9        30.21S
CANDO          NOT AVBL
FORT TOTTEN      N/A     52  45  76 NW5       29.95S
ROLLA            N/A     41  43 100 W7        30.24S
RUGBY          NOT AVBL
 ***** THE ABOVE OBSERVATIONS ARE NON NWS ARE NOT QUALITY
        CONTROLLED AND MAY MIS-REPORT RAIN FOR SNOW...
$$

 *****  OTHER OBSERVATIONS SOUTHEAST NORTH DAKOTA *****

CITY           SKY/WX    TMP DP  RH WIND       PRES   REMARKS
COOPERSTOWN    FAIR      45  43  93 NW7       30.22F
VALLEY CITY    CLOUDY    48  46  93 NW7       30.24S
OAKES          NOT AVBL
GWINNER        MOCLDY    52  41  66 NW10      30.22S
SHEYENNE NWR     N/A     51  45  79 NW5       29.95S
BUFFALO          N/A     49  40  69 N9          N/A
WYNDMERE       NOT AVBL
 ***** THE ABOVE OBSERVATIONS ARE NON NWS ARE NOT QUALITY
       CONTROLLED AND MAY MIS-REPORT RAIN FOR SNOW...
$$

  *****  WEATHER ACROSS NORTHERN MINNESOTA  *****

CITY           SKY/WX    TMP DP  RH WIND       PRES   REMARKS
FLAG ISLAND    FAIR      54  50  87 NW17      30.09S
WARROAD        RAIN      50  46  87 NW9       30.13R
ROSEAU         LGT RAIN  50  45  81 NW10      30.14R
HALLOCK        FAIR      46  45  93 NW6       30.18S
THF RVR FALLS  CLOUDY    50  47  89 NW13      30.16R
6HR MIN TEMP:  50; 6HR MAX TEMP:  53; 6HR PCP:  0.02;

HALSTAD          N/A     52  45  76 NW10        N/A
FOSSTON        CLOUDY    48  46  93 NW10      30.14S
BAUDETTE       LGT RAIN  53  51  93 N9        30.08R
6HR MIN TEMP:  53; 6HR MAX TEMP:  61; 6HR PCP:  0.05;

WASKISH        LGT RAIN  54  52  94 N7        30.08R
CROOKSTON      CLOUDY    52  46  82 N10       30.18R
$$
  *****  WEATHER ACROSS CENTRAL AND WEST MINNESOTA  *****

CITY           SKY/WX    TMP DP  RH WIND       PRES   REMARKS
BEMIDJI        DRIZZLE   51  50  98 NW13      30.08R
PARK RAPIDS    CLOUDY    51  47  86 NW15      30.09S
6HR MIN TEMP:  51; 6HR MAX TEMP:  57; 6HR PCP:  0.01;

WADENA         CLOUDY    48  46  93 NW14      30.11S
DETROIT LAKES  CLOUDY    48  46  93 NW16G24   30.15S
MOORHEAD       CLOUDY    52  43  71 NW12      30.18F
FERGUS FALLS   CLOUDY    48  46  93 NW10      30.16S
ELBOW LAKE     CLOUDY    49  47  92 W13G18    30.17S
6HR MIN TEMP:  49; 6HR MAX TEMP:  58; 6HR PCP:  0.01;

MORRIS MN      MOCLDY    52  46  82 NW16G22   30.17R
STAPLES        CLOUDY    50  46  87 NW12      30.09F
WHEATON        MOCLDY    52  43  71 W10       30.21S
$$
  *****  WEATHER ELSEWHERE ACROSS MINNESOTA  *****

CITY           SKY/WX    TMP DP  RH WIND       PRES   REMARKS
DULUTH         CLOUDY    52  50  93 NW7       29.99S
6HR MIN TEMP:  51; 6HR MAX TEMP:  59; 6HR PCP: TRACE;

INTRNTL FALLS  LGT RAIN  54  51  90 N7        30.04S
6HR MIN TEMP:  53; 6HR MAX TEMP:  60; 6HR PCP:  0.29;

ELY            CLOUDY    54  52  94 CALM      30.00S
CLOQUET        MOCLDY    52  46  82 W6        30.01S
BRAINERD       CLOUDY    53  49  86 NW12      30.08S
6HR MIN TEMP:  53; 6HR MAX TEMP:  63; 6HR PCP: TRACE;

HIBBING        MOCLDY    51  50  96 NW3       30.01S
6HR MIN TEMP:  51; 6HR MAX TEMP:  59; 6HR PCP: TRACE;

ALEXANDRIA     CLOUDY    50  49  96 NW16G22   30.14S
6HR MIN TEMP:  50; 6HR MAX TEMP:  60; 6HR PCP: TRACE;

SAINT CLOUD    CLOUDY    54  49  83 NW13      30.09S
6HR MIN TEMP:  54; 6HR MAX TEMP:  61; 6HR PCP: TRACE;

MINNEAPOLIS    MOCLDY    57  47  69 W7        30.08S
6HR MIN TEMP:  56; 6HR MAX TEMP:  64;

$$

  *****  WEATHER ACROSS SOUTH DAKOTA  *****

CITY           SKY/WX    TMP DP  RH WIND       PRES   REMARKS
SIOUX FALLS    FAIR      52  45  77 W6        30.23R
6HR MIN TEMP:  52; 6HR MAX TEMP:  68;

BROOKINGS      FAIR      53  45  74 NW9       30.22S
WATERTOWN      MOCLDY    54  44  69 N16G25    30.21S
6HR MIN TEMP:  54; 6HR MAX TEMP:  60;

HURON          FAIR      47  44  90 NW5       30.25S
6HR MIN TEMP:  46; 6HR MAX TEMP:  67;

SISSETON         N/A     53  44  71 N14       30.20R
ABERDEEN       FAIR      49  44  83 W5        30.25S
6HR MIN TEMP:  49; 6HR MAX TEMP:  61;

MITCHELL       NOT AVBL
PIERRE         NOT AVBL
MOBRIDGE       FAIR      44  38  79 CALM      30.28R
RAPID CITY     FAIR      49  32  52 CALM      30.38R
6HR MIN TEMP:  46; 6HR MAX TEMP:  74;

$$

  *****  SOME WEATHER IN NEARBY STATES *****

CITY           SKY/WX    TMP DP  RH WIND       PRES   REMARKS
GLASGOW MT     FAIR      55  34  45 E8        30.27S
6HR MIN TEMP:  55; 6HR MAX TEMP:  73;

GREAT FALLS MT FAIR      56  41  57 E8        30.34F
6HR MIN TEMP:  56; 6HR MAX TEMP:  74;

CHEYENNE WY    FAIR      54  37  52 CALM      30.40S
6HR MIN TEMP:  53; 6HR MAX TEMP:  69;

SCOTTSBLUFF NE FAIR      57  41  55 MISG      30.34R
6HR MIN TEMP:  56; 6HR MAX TEMP:  74;

OMAHA NE       FAIR      57  45  64 N6        30.22R
6HR MIN TEMP:  57; 6HR MAX TEMP:  77;

DES MOINES IA  FAIR      60  46  59 NW3       30.17R
6HR MIN TEMP:  59; 6HR MAX TEMP:  78;

DAVENPORT IA   FAIR      57  50  77 CALM      30.12R
6HR MIN TEMP:  54; 6HR MAX TEMP:  71; 6HR PCP: TRACE;

CHICAGO IL     MOCLDY    59  51  75 W7        30.05S
6HR MIN TEMP:  59; 6HR MAX TEMP:  71; 6HR PCP:  0.02;

EAU CLAIRE WI  FAIR      52  46  80 W9        30.03S
6HR MIN TEMP:  52; 6HR MAX TEMP:  60;

LA CROSSE WI   FAIR      60  49  66 CALM      30.06S
6HR MIN TEMP:  57; 6HR MAX TEMP:  61;

$$

  *****  SOME NATIONAL WEATHER *****

CITY           SKY/WX    TMP DP  RH WIND       PRES   REMARKS
LA GUARDIA NY  FAIR      73  61  65 NW5       29.91S
6HR MIN TEMP:  73; 6HR MAX TEMP:  85;



USA.gov is the U.S. government's official web portal to all federal, state and local government web resources and services.